Location: Mallard Lake North
(41.9667°N, 88.3709°W)
Time: 13:27:31
(UTC+00:00)

ISS - Pass Details

Date: 24 December 2025
Orbit: 414 x 424 km, 51.6° (Epoch: 13 January)

Event Time Altitude Azimuth Distance (km) Brightness Sun altitude
Exits shadow 11:38:35 16° 1° (N) 1,194 -1.6 -18.0°
Maximum altitude 11:38:45 16° 4° (N) 1,191 -1.6 -18.0°
Drops below altitude 10° 11:41:00 10° 46° (NE) 1,520 -0.5 -17.6°
Sets 11:43:42 0° 68° (ENE) 2,386 0.9 -17.1°
